| time (UTC) | temp F | wind direction | speed MPH | gust MPH | rain 1hr in | rain 24hr in | rain mn in | humidity % | barometer mb |
| 20260906224504 | 59 | 252 | 2.0 | 6.0 | 0.00 | 0.01 | 0.00 | 81 | 1019.3 |
| 20260906220004 | 60 | 271 | 3.0 | 8.0 | 0.00 | 0.01 | 0.00 | 80 | 1019.3 |
| 20260906214504 | 60 | 286 | 5.0 | 7.0 | 0.00 | 0.01 | 0.01 | 80 | 1018.9 |
| 20260906210004 | 61 | 287 | 6.0 | 9.0 | 0.00 | 0.01 | 0.01 | 78 | 1018.9 |
| 20260906204504 | 62 | 287 | 7.0 | 10.0 | 0.00 | 0.01 | 0.01 | 76 | 1018.9 |
| 20260906203005 | 62 | 287 | 6.0 | 8.0 | 0.00 | 0.01 | 0.01 | 77 | 1018.7 |
| 20260906200004 | 62 | 264 | 3.0 | 9.0 | 0.00 | 0.01 | 0.01 | 76 | 1018.7 |
| 20260906193004 | 63 | 272 | 1.0 | 5.0 | 0.00 | 0.01 | 0.01 | 77 | 1018.5 |
| 20260906191504 | 63 | 288 | 1.0 | 6.0 | 0.00 | 0.01 | 0.01 | 77 | 1018.4 |
| 20260906181504 | 64 | 271 | 2.0 | 9.0 | 0.00 | 0.01 | 0.01 | 75 | 1017.6 |
| 20260906174504 | 64 | 265 | 2.0 | 7.0 | 0.00 | 0.03 | 0.01 | 77 | 1017.6 |
| 20260906170004 | 66 | 282 | 3.0 | 8.0 | 0.00 | 0.08 | 0.01 | 73 | 1017.1 |
| 20260906164504 | 67 | 261 | 3.0 | 8.0 | 0.00 | 0.08 | 0.01 | 73 | 1016.7 |
| 20260906160004 | 68 | 287 | 2.0 | 9.0 | 0.00 | 0.08 | 0.01 | 71 | 1016.7 |
| 20260906154503 | 69 | 275 | 2.0 | 5.0 | 0.00 | 0.08 | 0.01 | 69 | 1016.6 |
| 20260906153005 | 69 | 285 | 3.0 | 7.0 | 0.00 | 0.08 | 0.01 | 68 | 1016.4 |
| 20260906151504 | 70 | 288 | 3.0 | 6.0 | 0.00 | 0.08 | 0.01 | 65 | 1016.4 |
| 20260906143004 | 71 | 279 | 3.0 | 5.0 | 0.00 | 0.08 | 0.01 | 63 | 1016.6 |
| 20260906133004 | 69 | 280 | 1.0 | 5.0 | 0.00 | 0.08 | 0.01 | 68 | 1016.4 |
| 20260906123005 | 68 | 288 | 3.0 | 9.0 | 0.00 | 0.08 | 0.01 | 70 | 1016.2 |
| 20260906120005 | 68 | 298 | 1.0 | 5.0 | 0.00 | 0.08 | 0.01 | 71 | 1016.2 |
| 20260906114504 | 68 | 279 | 1.0 | 7.0 | 0.00 | 0.08 | 0.01 | 71 | 1016.1 |
| 20260906111505 | 67 | 280 | 5.0 | 8.0 | 0.00 | 0.08 | 0.01 | 70 | 1016.1 |
| 20260906104504 | 66 | 294 | 3.0 | 8.0 | 0.00 | 0.09 | 0.01 | 74 | 1015.9 |
| 20260906093004 | 63 | 246 | 0.0 | 6.0 | 0.00 | 0.11 | 0.01 | 80 | 1015.2 |
| 20260906091503 | 63 | 269 | 3.0 | 7.0 | 0.00 | 0.11 | 0.01 | 78 | 1015.2 |
| 20260906083005 | 61 | 279 | 3.0 | 9.0 | 0.00 | 0.11 | 0.01 | 82 | 1015.2 |
| 20260906081504 | 60 | 270 | 3.0 | 8.0 | 0.00 | 0.11 | 0.01 | 84 | 1014.8 |
| 20260906074504 | 59 | 266 | 3.0 | 6.0 | 0.00 | 0.11 | 0.01 | 85 | 1014.8 |
| 20260906073005 | 59 | 279 | 2.0 | 5.0 | 0.00 | 0.11 | 0.01 | 85 | 1014.4 |
| 20260906053004 | 55 | 277 | 3.0 | 7.0 | 0.00 | 0.11 | 0.01 | 91 | 1012.0 |
| 20260906051504 | 55 | 287 | 4.0 | 8.0 | 0.00 | 0.11 | 0.01 | 91 | 1012.0 |
| 20260906050004 | 55 | 287 | 4.0 | 8.0 | 0.00 | 0.11 | 0.01 | 91 | 1012.0 |
| 20260906044504 | 55 | 289 | 4.0 | 6.0 | 0.00 | 0.11 | 0.01 | 91 | 1012.0 |
| 20260906043004 | 54 | 286 | 2.0 | 6.0 | 0.00 | 0.11 | 0.01 | 92 | 1012.0 |
| 20260906034504 | 55 | 310 | 3.0 | 9.0 | 0.00 | 0.11 | 0.01 | 92 | 1011.1 |
| 20260906033006 | 55 | 300 | 3.0 | 9.0 | 0.00 | 0.11 | 0.01 | 92 | 1010.9 |
| 20260906024504 | 55 | 306 | 3.0 | 10.0 | 0.01 | 0.11 | 0.01 | 91 | 1010.2 |
| 20260906023005 | 55 | 334 | 3.0 | 9.0 | 0.01 | 0.11 | 0.01 | 91 | 1009.1 |
| 20260906021504 | 55 | 318 | 3.0 | 7.0 | 0.01 | 0.11 | 0.01 | 91 | 1009.1 |
| 20260906013005 | 55 | 300 | 4.0 | 9.0 | 0.00 | 0.10 | 0.00 | 91 | 1009.1 |
| 20260906001504 | 55 | 315 | 3.0 | 8.0 | 0.00 | 0.11 | 0.00 | 91 | 1007.8 |
| 20260905234504 | 56 | 320 | 4.0 | 8.0 | 0.00 | 0.11 | 0.00 | 90 | 1006.5 |